Ephrata, WA

1:05 AM PST on January 23, 2018 (GMT -0800)
Ephrata Municipal

Weather History for KEPH - February, 2014

Change the Weather History Date:

Saturday, February 22, 2014

  Actual Average Record
Temperature  
Mean Temperature 34 °F 36 °F  
Max Temperature 39 °F 45 °F 62 °F (1988)
Min Temperature 29 °F 27 °F 13 °F (1985)
Degree Days  
Heating Degree Days 31 29  
Month to date heating degree days 790 695  
Since 1 July heating degree days 4402 4403  
Cooling Degree Days 0 0  
Month to date cooling degree days 0 0  
Year to date cooling degree days 0 0  
Moisture  
Dew Point 22 °F    
Average Humidity 70    
Maximum Humidity 92    
Minimum Humidity 47    
Precipitation  
Precipitation T in 0.02 in 0.26 in (1989)
Month to date precipitation 0.61 0.57  
Year to date precipitation 0.92 1.48  
Sea Level Pressure  
Sea Level Pressure 30.13 in    
Wind  
Wind Speed 4 mph (NNE)    
Max Wind Speed 12 mph    
Max Gust Speed 14 mph    
Visibility 9 miles    
Events Snow    
T = Trace of Precipitation, MM = Missing Value Source: NWS Daily Summary

Daily Weather History Graph

Daily Weather History Graph

Search for Another Location

Airport or City:

Trip Planner

Search our weather history database for the weather conditions in past years. The results will help you decide how hot, cold, wet, or windy it might be!

Date:

Astronomy

Feb. 22, 2014 Rise Set
Actual Time 6:50 AM PST 5:32 PM PST
Civil Twilight 6:19 AM PST 6:03 PM PST
Nautical Twilight 5:44 AM PST 6:39 PM PST
Astronomical Twilight 5:08 AM PST 7:15 PM PST
Moon 1:01 AM PST (2/22) 10:36 AM PST (2/22)
Length of Visible Light 11h 44m
Length of Day
10h 41m
Waning Gibbous, 49% of the Moon is Illuminated
Feb 22
Waning Gibbous
Mar 1
New
Mar 8
First Quarter
Mar 16
Full
Mar 23
Last Quarter

Hourly Weather History & Observations

Time (PST) Temp. Windchill Dew Point Humidity Pressure Visibility Wind Dir Wind Speed Gust Speed Precip Events Conditions
12:53 AM 32.0 °F 27.5 °F 19.0 °F 59% 30.18 in 10.0 mi NNW 4.6 mph - N/A   Overcast
1:53 AM 32.0 °F 27.5 °F 19.9 °F 61% 30.17 in 10.0 mi NNW 4.6 mph - N/A   Overcast
2:53 AM 33.1 °F 27.7 °F 19.9 °F 59% 30.16 in 10.0 mi NNW 5.8 mph - N/A   Overcast
3:53 AM 32.0 °F 24.8 °F 19.9 °F 61% 30.16 in 10.0 mi NW 8.1 mph - N/A   Overcast
4:53 AM 32.0 °F 23.6 °F 19.0 °F 59% 30.17 in 10.0 mi NW 10.4 mph - N/A   Overcast
5:53 AM 30.0 °F 25.2 °F 19.9 °F 66% 30.16 in 10.0 mi North 4.6 mph - N/A   Overcast
6:53 AM 30.0 °F 26.5 °F 19.9 °F 66% 30.16 in 10.0 mi North 3.5 mph - N/A   Overcast
7:53 AM 32.0 °F - 21.0 °F 64% 30.17 in 10.0 mi Calm Calm - N/A   Overcast
8:53 AM 34.0 °F - 19.0 °F 54% 30.16 in 10.0 mi Calm Calm - N/A   Overcast
9:53 AM 36.0 °F - 19.9 °F 52% 30.16 in 10.0 mi Calm Calm - N/A   Overcast
10:53 AM 36.0 °F 32.1 °F 18.0 °F 48% 30.17 in 10.0 mi NE 4.6 mph - N/A   Overcast
11:53 AM 36.0 °F 33.3 °F 17.1 °F 46% 30.17 in 10.0 mi Variable 3.5 mph - N/A   Overcast
12:53 PM 36.0 °F 32.1 °F 19.9 °F 52% 30.15 in 10.0 mi ESE 4.6 mph - N/A   Overcast
1:53 PM 37.0 °F 33.3 °F 19.9 °F 50% 30.12 in 10.0 mi Variable 4.6 mph - N/A   Overcast
2:53 PM 37.9 °F - 21.0 °F 51% 30.12 in 10.0 mi Calm Calm - N/A   Clear
3:53 PM 37.9 °F - 21.0 °F 51% 30.10 in 10.0 mi Calm Calm - N/A   Mostly Cloudy
4:53 PM 37.0 °F 34.5 °F 21.0 °F 52% 30.10 in 10.0 mi ESE 3.5 mph - N/A   Overcast
5:53 PM 36.0 °F 32.1 °F 23.0 °F 59% 30.11 in 10.0 mi ESE 4.6 mph - N/A   Overcast
6:53 PM 34.0 °F 29.8 °F 23.0 °F 64% 30.11 in 10.0 mi ENE 4.6 mph - N/A   Overcast
7:53 PM 32.0 °F 27.5 °F 26.1 °F 79% 30.10 in 10.0 mi NE 4.6 mph - N/A   Overcast
8:53 PM 30.9 °F 25.2 °F 27.0 °F 85% 30.11 in 10.0 mi NE 5.8 mph - N/A   Overcast
9:53 PM 30.9 °F 25.2 °F 28.0 °F 89% 30.10 in 10.0 mi NE 5.8 mph - N/A   Overcast
10:40 PM 30.2 °F 25.4 °F 28.4 °F 93% 30.06 in 2.5 mi NE 4.6 mph - 0.00 in Snow Light Snow
10:53 PM 30.9 °F 27.5 °F 28.9 °F 92% 30.09 in 2.0 mi ENE 3.5 mph - 0.00 in Snow Light Snow
11:24 PM 30.2 °F 26.7 °F 28.4 °F 93% 30.05 in 2.0 mi NE 3.5 mph - 0.00 in Snow Light Snow
11:45 PM 30.2 °F 26.7 °F 28.4 °F 93% 30.05 in 2.0 mi North 3.5 mph - 0.00 in Snow Light Snow
11:53 PM 30.9 °F 27.5 °F 28.9 °F 92% 30.09 in 3.0 mi NNE 3.5 mph - 0.00 in Snow Light Snow